Location: *
(46.4000°N, 12.6667°E)
Time: 17:26:30
(UTC+00:00)

Cosmos 1850 Rocket - Pass Details

Date: 09 April 2020
Orbit: 754 x 786 km, 74.0° (Epoch: 25 May)

Event Time Altitude Azimuth Distance (km) Brightness Sun altitude
Exits shadow 20:24:22 25° 210° (SSW) 1,495 5.3 -24.2°
Maximum altitude 20:27:26 76° 292° (WNW) 780 4.0 -24.6°
Drops below altitude 10° 20:32:38 10° 19° (NNE) 2,290 6.8 -25.2°
Sets 20:35:01 0° 21° (NNE) 3,221 7.6 -25.5°
